Location: Bas-Clignon
(44.2000°N, 6.6333°E)
Time: 11:55:21
(UTC+00:00)

Lacrosse 5 - Pass Details

Date: 03 February 2023
Orbit: 714 x 724 km, 57.0° (Epoch: 09 March)

Event Time Altitude Azimuth Distance (km) Brightness Sun altitude
Rises 18:25:34 0° 244° (WSW) 3,127 6.5 -18.2°
Reaches altitude 10° 18:28:00 10° 249° (WSW) 2,210 5.5 -18.6°
Maximum altitude 18:32:58 51° 325° (NW) 909 2.5 -19.5°
Enters shadow 18:35:50 24° 31° (NNE) 1,480 3.2 -20.0°
